Lewisburg, WV

9:45 AM EST on February 22, 2018 (GMT -0500)
Greenbrier Valley

Weather History for KLWB - April, 2014

Change the Weather History Date:

Tuesday, April 8, 2014

  Actual Average Record
Temperature  
Mean Temperature 45 °F -  
Max Temperature 55 °F 62 °F 79 °F (2001)
Min Temperature 35 °F 36 °F 19 °F (1994)
Degree Days  
Heating Degree Days 20    
Month to date heating degree days 115  
Moisture  
Dew Point 36 °F    
Average Humidity 64    
Maximum Humidity 83    
Minimum Humidity 44    
Precipitation  
Precipitation T in - - ()
Month to date precipitation 0.92  
Year to date precipitation 5.60  
Snow  
Snow 0.00 in - - ()
Month to date snowfall 0.0  
Snow Depth 0.00 in    
Sea Level Pressure  
Sea Level Pressure 29.66 in    
Wind  
Wind Speed 8 mph (West)    
Max Wind Speed 20 mph    
Max Gust Speed 29 mph    
Visibility 10 miles    
Events Rain    
Averages and records for this station are not official NWS values.
T = Trace of Precipitation, MM = Missing Value Source: NWS Daily Summary

Daily Weather History Graph

Daily Weather History Graph

Search for Another Location

Airport or City:

Trip Planner

Search our weather history database for the weather conditions in past years. The results will help you decide how hot, cold, wet, or windy it might be!

Date:

Astronomy

Apr. 08, 2014 Rise Set
Actual Time 6:56 AM EDT 7:50 PM EDT
Civil Twilight 6:29 AM EDT 8:17 PM EDT
Nautical Twilight 5:58 AM EDT 8:49 PM EDT
Astronomical Twilight 5:25 AM EDT 9:22 PM EDT
Moon 1:49 PM EDT (4/8) 3:02 AM EDT (4/8)
Length of Visible Light 13h 48m
Length of Day
12h 54m
Waxing Gibbous, 62% of the Moon is Illuminated
Apr 8
Waxing Gibbous
Apr 15
Full
Apr 22
Last Quarter
Apr 29
New
May 6
First Quarter

Hourly Weather History & Observations

Time (EDT) Temp. Windchill Dew Point Humidity Pressure Visibility Wind Dir Wind Speed Gust Speed Precip Events Conditions
12:15 AM 55.4 °F - 49.5 °F 80% 29.56 in 10.0 mi SSW 9.2 mph - N/A Rain Light Rain
12:35 AM 55.4 °F - 49.5 °F 80% 29.56 in 10.0 mi South 9.2 mph - N/A   Overcast
12:55 AM 54.9 °F - 49.1 °F 81% 29.56 in 10.0 mi SSW 9.2 mph - N/A   Mostly Cloudy
1:15 AM 54.5 °F - 49.1 °F 82% 29.56 in 10.0 mi SSW 8.1 mph - N/A   Scattered Clouds
1:35 AM 54.0 °F - 49.1 °F 84% 29.55 in 10.0 mi SSW 8.1 mph - N/A   Scattered Clouds
1:55 AM 54.3 °F - 49.1 °F 83% 29.55 in 10.0 mi SSW 8.1 mph - N/A   Mostly Cloudy
2:15 AM 54.0 °F - 48.9 °F 83% 29.54 in 10.0 mi SW 8.1 mph - N/A   Scattered Clouds
2:35 AM 53.4 °F - 48.6 °F 84% 29.54 in 10.0 mi SSW 8.1 mph - N/A   Scattered Clouds
2:55 AM 53.1 °F - 48.2 °F 84% 29.54 in 10.0 mi SSW 8.1 mph - N/A   Scattered Clouds
3:15 AM 54.9 °F - 46.8 °F 74% 29.54 in 10.0 mi SW 15.0 mph 19.6 mph N/A   Mostly Cloudy
3:35 AM 55.4 °F - 45.5 °F 69% 29.54 in 10.0 mi SW 15.0 mph 19.6 mph N/A   Scattered Clouds
3:55 AM 55.0 °F - 45.0 °F 69% 29.54 in 10.0 mi WSW 12.7 mph 16.1 mph N/A   Overcast
4:15 AM 54.9 °F - 42.8 °F 64% 29.56 in 10.0 mi WSW 17.3 mph 23.0 mph N/A   Overcast
4:35 AM 54.0 °F - 41.2 °F 62% 29.56 in 10.0 mi WSW 19.6 mph 26.5 mph N/A   Mostly Cloudy
4:55 AM 53.4 °F - 39.0 °F 58% 29.57 in 10.0 mi WSW 19.6 mph 28.8 mph N/A   Mostly Cloudy
5:15 AM 53.1 °F - 40.1 °F 61% 29.57 in 10.0 mi West 13.8 mph 19.6 mph N/A   Overcast
5:35 AM 51.6 °F - 39.0 °F 62% 29.58 in 10.0 mi West 16.1 mph 24.2 mph N/A   Overcast
5:55 AM 50.4 °F - 36.5 °F 59% 29.60 in 10.0 mi West 17.3 mph 26.5 mph N/A   Overcast
6:15 AM 49.6 °F - 34.7 °F 56% 29.61 in 10.0 mi WSW 12.7 mph 21.9 mph N/A   Overcast
6:35 AM 49.3 °F - 34.7 °F 57% 29.62 in 10.0 mi WSW 10.4 mph 25.3 mph N/A   Overcast
6:55 AM 48.6 °F - 34.9 °F 59% 29.63 in 10.0 mi WNW 15.0 mph 21.9 mph N/A   Overcast
7:15 AM 47.1 °F - 33.8 °F 60% 29.64 in 10.0 mi West 9.2 mph 23.0 mph N/A   Overcast
7:35 AM 46.6 °F - 33.3 °F 60% 29.65 in 10.0 mi West 10.4 mph 17.3 mph N/A   Overcast
7:55 AM 45.7 °F 41.5 °F 33.1 °F 61% 29.67 in 10.0 mi WNW 8.1 mph 17.3 mph N/A   Overcast
8:15 AM 45.5 °F 39.9 °F 32.5 °F 61% 29.68 in 10.0 mi WSW 11.5 mph 17.3 mph N/A   Overcast
8:35 AM 44.6 °F 38.8 °F 33.3 °F 64% 29.68 in 10.0 mi West 11.5 mph 24.2 mph N/A   Overcast
8:55 AM 44.6 °F 39.2 °F 33.4 °F 65% 29.68 in 10.0 mi West 10.4 mph 17.3 mph N/A   Overcast
9:15 AM 45.0 °F 39.3 °F 32.9 °F 63% 29.69 in 10.0 mi West 11.5 mph 19.6 mph N/A   Overcast
9:35 AM 45.0 °F 39.7 °F 32.0 °F 60% 29.70 in 10.0 mi West 10.4 mph 19.6 mph N/A   Overcast
9:55 AM 45.7 °F 42.7 °F 32.9 °F 61% 29.69 in 10.0 mi West 5.8 mph - N/A   Overcast
10:15 AM 45.7 °F 42.7 °F 32.9 °F 61% 29.69 in 10.0 mi West 5.8 mph - N/A   Overcast
10:35 AM 45.3 °F 41.6 °F 34.7 °F 66% 29.70 in 10.0 mi West 6.9 mph - N/A   Light Drizzle
10:55 AM 44.2 °F 39.2 °F 35.6 °F 72% 29.71 in 10.0 mi West 9.2 mph - N/A Rain Light Rain
11:15 AM 44.4 °F 40.0 °F 36.0 °F 72% 29.72 in 10.0 mi West 8.1 mph - N/A   Overcast
11:35 AM 45.9 °F 42.9 °F 35.4 °F 67% 29.71 in 10.0 mi West 5.8 mph - N/A   Mostly Cloudy
11:55 AM 46.8 °F - 34.9 °F 63% 29.71 in 10.0 mi West 9.2 mph 16.1 mph N/A   Mostly Cloudy
12:15 PM 47.5 °F - 34.5 °F 61% 29.70 in 10.0 mi WNW 9.2 mph 16.1 mph N/A   Overcast
12:35 PM 47.1 °F - 33.4 °F 59% 29.70 in 10.0 mi WNW 9.2 mph 16.1 mph N/A   Overcast
12:55 PM 47.8 °F - 33.8 °F 58% 29.70 in 10.0 mi West 9.2 mph - N/A   Overcast
1:15 PM 47.3 °F - 32.9 °F 57% 29.70 in 10.0 mi West 8.1 mph - N/A   Overcast
1:35 PM 48.2 °F - 33.3 °F 56% 29.69 in 10.0 mi WNW 6.9 mph - N/A   Overcast
1:55 PM 48.0 °F - 33.1 °F 56% 29.69 in 10.0 mi West 5.8 mph - N/A   Overcast
2:15 PM 48.9 °F - 32.2 °F 52% 29.68 in 10.0 mi NW 6.9 mph - N/A   Overcast
2:55 PM 49.5 °F - 31.8 °F 51% 29.68 in 10.0 mi NW 6.9 mph - N/A   Overcast
3:15 PM 49.5 °F - 32.0 °F 51% 29.67 in 10.0 mi NW 3.5 mph - N/A   Overcast
3:35 PM 50.2 °F - 31.8 °F 49% 29.67 in 10.0 mi NW 9.2 mph - N/A   Overcast
3:55 PM 50.2 °F - 30.6 °F 47% 29.68 in 10.0 mi NNW 9.2 mph - N/A   Overcast
4:15 PM 50.2 °F - 30.2 °F 46% 29.68 in 10.0 mi NW 8.1 mph 16.1 mph N/A   Overcast
4:35 PM 50.4 °F - 30.7 °F 47% 29.68 in 10.0 mi NNW 9.2 mph - N/A   Overcast
4:55 PM 50.0 °F - 29.8 °F 46% 29.68 in 10.0 mi NNW 8.1 mph - N/A   Overcast
5:15 PM 50.2 °F - 29.8 °F 46% 29.68 in 10.0 mi NW 6.9 mph - N/A   Overcast
5:35 PM 50.0 °F - 30.2 °F 47% 29.69 in 10.0 mi NNW 8.1 mph - N/A   Overcast
5:55 PM 50.0 °F - 30.2 °F 47% 29.70 in 10.0 mi NNW 5.8 mph - N/A   Overcast
6:15 PM 50.0 °F - 30.0 °F 46% 29.71 in 10.0 mi NNW 6.9 mph - N/A   Overcast
6:35 PM 50.0 °F - 30.2 °F 47% 29.72 in 10.0 mi North 5.8 mph - N/A   Overcast
6:55 PM 49.8 °F - 30.2 °F 47% 29.72 in 10.0 mi North 3.5 mph - N/A   Overcast
7:15 PM 49.6 °F - 30.9 °F 49% 29.72 in 10.0 mi North 3.5 mph - N/A   Overcast
7:35 PM 49.5 °F - 30.7 °F 49% 29.72 in 10.0 mi Calm Calm - N/A   Overcast
7:55 PM 49.1 °F - 31.1 °F 50% 29.72 in 10.0 mi Calm Calm - N/A   Overcast
8:15 PM 46.4 °F - 31.3 °F 56% 29.73 in 10.0 mi Calm Calm - N/A   Mostly Cloudy
8:35 PM 45.1 °F - 32.0 °F 60% 29.74 in 10.0 mi Calm Calm - N/A   Scattered Clouds
8:55 PM 42.8 °F - 32.0 °F 66% 29.74 in 10.0 mi Calm Calm - N/A   Clear
9:15 PM 42.4 °F - 32.9 °F 69% 29.75 in 10.0 mi Calm Calm - N/A   Clear
9:35 PM 41.4 °F - 32.2 °F 70% 29.75 in 10.0 mi Calm Calm - N/A   Clear
9:55 PM 41.7 °F - 32.4 °F 69% 29.75 in 10.0 mi Calm Calm - N/A   Clear
10:15 PM 38.3 °F - 32.0 °F 78% 29.75 in 10.0 mi Calm Calm - N/A   Clear
10:35 PM 39.7 °F - 32.2 °F 74% 29.75 in 10.0 mi Calm Calm - N/A   Scattered Clouds
10:55 PM 38.7 °F - 32.0 °F 77% 29.75 in 10.0 mi Calm Calm - N/A   Mostly Cloudy
11:15 PM 38.3 °F - 32.0 °F 78% 29.75 in 10.0 mi Calm Calm - N/A   Scattered Clouds
11:35 PM 39.2 °F - 32.0 °F 75% 29.75 in 10.0 mi Calm Calm - N/A   Clear
11:55 PM 37.0 °F - 31.6 °F 81% 29.75 in 10.0 mi Calm Calm - N/A   Scattered Clouds